Location: Chenereilles
(45.4866°N, 4.0790°E)
Time: 12:17:42
(UTC+00:00)

Okean-O - Pass Details

Date: 12 November 2019
Orbit: 639 x 641 km, 98.2° (Epoch: 06 December)

Event Time Altitude Azimuth Distance (km) Brightness Sun altitude
Rises 17:29:40 0° 167° (SSE) 2,933 6.0 -12.9°
Reaches altitude 10° 17:31:52 10° 169° (S) 2,029 5.2 -13.2°
Maximum altitude 17:36:17 80° 256° (WSW) 656 2.7 -14.0°
Drops below altitude 10° 17:40:45 10° 344° (NNW) 2,044 5.3 -14.8°
Sets 17:42:58 0° 346° (NNW) 2,957 6.1 -15.2°
